Date,TemperatureHighF,TemperatureAvgF,TemperatureLowF,DewpointHighF,DewpointAvgF,DewpointLowF,HumidityHigh,HumidityAvg,HumidityLow,PressureMaxIn,PressureMinIn,WindSpeedMaxMPH,WindSpeedAvgMPH,GustSpeedMaxMPH,PrecipitationSumIn
2014-1-1,29,21,11,26,19,8,94,91,86,0.00,40.00,4,1,11,0.00
2014-1-2,27,12,1,24,8,-4,93,85,79,0.00,40.00,3,0,7,0.00
2014-1-3,10,3,-5,6,-2,-11,84,80,76,0.00,40.00,0,0,3,0.00
2014-1-4,23,12,-5,22,9,-11,94,87,76,0.00,40.00,0,0,4,0.00
2014-1-5,28,26,21,27,25,16,97,95,91,0.00,40.00,0,0,0,0.00
2014-1-6,23,18,11,22,16,8,94,91,86,0.00,40.00,0,0,0,0.00
2014-1-7,-200,0,200,-100,-100,-100,0,0,100,0.00,40.00,0,0,0,0.00
2014-1-10,18,5,18,-100,-100,-100,0,0,100,0.00,40.00,0,0,0,0.00
2014-1-12,-200,0,200,-100,-100,-100,0,0,100,0.00,40.00,0,0,0,0.00
2014-1-13,6,4,5,2,-66,-100,82,27,82,0.00,40.00,0,0,0,0.00
2014-1-14,30,13,8,27,9,4,88,85,83,0.00,40.00,0,0,0,0.00
2014-1-15,34,30,29,28,28,27,95,93,90,0.00,40.00,3,1,8,0.00
2014-1-16,34,32,31,34,32,29,99,97,86,0.00,40.00,3,1,7,0.00
2014-1-17,43,33,27,34,31,27,98,91,62,0.00,40.00,5,2,15,0.51
2014-1-18,39,36,33,36,29,21,99,76,49,0.00,40.00,5,2,14,0.19
2014-1-19,35,27,23,25,23,21,92,85,60,0.00,40.00,3,1,13,0.01
2014-1-20,27,22,11,23,20,8,95,90,79,0.00,40.00,1,0,6,0.00
2014-1-21,32,27,16,30,24,13,93,89,82,0.00,40.00,3,1,7,0.00
2014-2-3,6,-8,-18,0,-14,-26,78,72,66,0.00,40.00,0,0,0,0.00
2014-2-4,7,-10,-22,0,-17,-30,78,69,64,0.00,40.00,0,0,0,0.00
2014-2-5,6,-6,-21,-1,-12,-29,76,72,65,0.00,40.00,0,0,0,0.00
2014-2-6,2,-5,-20,-3,-11,-28,80,75,65,0.00,40.00,0,0,0,0.00
2014-2-7,11,5,-4,7,1,-10,83,80,76,0.00,40.00,0,0,0,0.00
2014-2-8,11,0,-12,3,-7,-18,76,72,69,0.00,40.00,0,0,0,0.00
2014-2-9,3,-6,-17,-3,-12,-25,77,73,67,0.00,40.00,0,0,0,0.00
2014-2-10,5,-6,-22,-5,-13,-30,77,70,63,0.00,40.00,0,0,0,0.00
2014-2-11,2,-13,-31,-9,-37,-100,67,61,57,0.00,40.00,0,0,0,0.00
2014-2-12,-2,-13,-35,-12,-34,-100,73,64,56,0.00,40.00,0,0,0,0.00
2014-2-13,0,-4,-8,-6,-11,-15,78,73,67,0.00,40.00,0,0,0,0.00
2014-2-14,2,-7,-24,-5,-13,-32,79,72,63,0.00,40.00,0,0,0,0.00
2014-2-15,8,5,1,4,1,-4,84,82,79,0.00,40.00,0,0,0,0.00
2014-2-16,25,7,-3,19,2,-9,87,80,76,0.00,40.00,0,0,0,0.00
2014-2-17,15,3,-10,9,-2,-16,83,78,73,0.00,40.00,0,0,0,0.00
2014-2-18,21,-1,-13,12,-7,-20,78,74,64,0.00,40.00,0,0,0,0.00
2014-2-19,20,-8,-21,9,-15,-29,75,68,58,0.00,40.00,0,0,0,0.00
2014-2-20,17,-4,-18,7,-12,-28,78,69,56,0.00,40.00,0,0,0,0.00
2014-2-21,15,-13,-27,4,-21,-36,71,64,47,0.00,40.00,0,0,0,0.00
2014-2-22,8,-11,-31,-3,-26,-100,68,62,54,0.00,40.00,0,0,0,0.00
2014-2-23,13,-11,-31,-1,-33,-100,69,60,53,0.00,40.00,0,0,0,0.00
2014-2-24,14,-8,-28,1,-18,-37,72,63,54,0.00,40.00,0,0,0,0.00
2014-3-9,20,12,3,11,6,-1,84,77,65,0.00,40.00,2,0,5,0.00
2014-3-10,39,24,0,28,16,-5,83,71,46,0.00,40.00,4,2,14,0.04
2014-3-11,43,37,32,30,27,23,83,67,46,0.00,40.00,7,3,17,0.22
2014-3-12,41,33,26,27,17,9,85,54,28,0.00,40.00,7,4,21,0.03
2014-3-13,47,30,17,15,12,10,80,51,23,0.00,40.00,5,2,11,0.02
2014-3-14,49,34,21,22,14,11,64,46,27,0.00,40.00,5,2,20,0.01
2014-3-15,35,25,10,11,8,2,75,49,31,0.00,40.00,5,2,18,0.00
2014-3-17,36,20,-3,13,2,-9,79,49,30,0.00,40.00,2,1,7,0.00
2014-3-18,37,23,10,18,12,6,84,66,42,0.00,40.00,5,2,11,0.00
2014-3-19,37,30,11,15,8,3,81,43,26,0.00,40.00,5,3,17,0.00
2014-3-20,36,19,-3,6,0,-100,77,48,25,0.00,40.00,6,2,15,0.00
2014-3-21,31,14,-9,4,-3,-100,75,52,30,0.00,40.00,5,2,11,0.00
2014-3-22,32,13,-11,4,-3,-18,76,54,30,0.00,40.00,5,2,10,0.00
2014-3-23,32,10,-13,5,-6,-20,73,53,29,0.00,40.00,4,1,10,0.00
2014-4-20,53,39,23,28,22,19,85,55,27,0.00,40.00,4,1,10,0.00
2014-4-21,55,39,21,27,23,19,92,58,29,0.00,40.00,4,2,11,0.00
2014-4-22,54,42,20,26,22,18,91,51,30,0.00,40.00,4,2,11,0.00
2014-4-23,57,39,20,27,21,18,90,55,23,0.00,40.00,4,1,9,0.00
2014-4-24,50,38,25,26,23,21,87,59,36,0.00,40.00,5,2,12,0.00
2014-4-25,53,40,26,25,20,12,88,51,20,0.00,40.00,6,2,19,0.00
2014-4-26,53,35,25,20,18,12,78,53,19,0.00,40.00,3,1,9,0.00
2014-5-26,67,49,27,35,30,22,83,53,26,0.00,40.00,4,2,12,0.00
2014-5-27,62,48,28,34,30,22,81,53,31,0.00,40.00,7,3,15,0.00
2014-5-28,61,50,39,38,34,32,91,58,34,0.00,40.00,6,2,13,0.00
2014-5-29,68,50,27,35,30,23,83,51,23,0.00,40.00,7,2,17,0.00
2014-5-30,59,50,40,48,39,31,95,67,45,0.00,40.00,2,1,7,0.02
2014-5-31,59,50,35,43,29,17,96,52,19,0.00,40.00,10,5,27,0.01
2014-6-1,52,42,28,27,24,20,70,51,35,0.00,40.00,5,2,11,0.00
2014-7-24,65,55,45,55,49,45,100,82,49,0.00,40.00,3,1,8,0.05
2014-7-25,62,54,47,50,47,43,98,80,50,0.00,40.00,2,1,7,0.05
2014-7-26,64,54,39,51,46,38,99,78,48,0.00,40.00,4,2,10,0.01
2014-7-27,61,52,46,53,48,45,100,88,66,0.00,40.00,3,1,8,0.09
2014-7-28,70,53,35,47,42,35,99,71,34,0.00,40.00,3,1,9,0.01
2014-7-29,60,49,32,50,44,31,97,82,65,0.00,40.00,3,1,6,0.01
2014-7-30,69,53,36,48,44,35,98,74,45,0.00,40.00,4,1,11,0.00
2014-7-31,74,57,46,48,44,44,93,67,34,0.00,40.00,4,1,11,0.00
2014-8-1,76,56,32,45,39,30,94,60,26,0.00,40.00,5,2,13,0.00
2014-8-2,78,58,29,42,36,26,90,51,18,0.00,40.00,4,2,9,0.00
2014-8-3,69,60,49,56,50,41,100,71,50,0.00,40.00,3,1,8,0.07
2014-8-4,74,57,45,52,46,39,100,72,34,0.00,40.00,6,2,19,0.01
2014-8-5,71,55,38,43,39,34,98,58,29,0.00,40.00,6,2,13,0.01
2014-8-6,67,53,43,47,42,39,92,68,38,0.00,40.00,4,2,11,0.00
2014-10-25,31,27,26,27,26,25,97,93,83,0.00,40.00,2,0,4,0.04
2014-10-26,29,26,21,26,24,20,97,93,84,0.00,40.00,3,0,7,0.00
2014-10-27,31,18,-2,21,12,-7,93,79,56,0.00,40.00,2,1,7,0.00
2014-10-28,16,11,-4,11,7,-9,87,83,76,0.00,40.00,2,1,5,0.00
2014-10-29,17,9,-1,9,4,-6,85,80,70,0.00,40.00,1,0,4,0.00
2014-10-30,14,10,-3,10,5,-8,87,82,77,0.00,40.00,2,0,6,0.00
2014-10-31,27,17,6,20,13,2,91,85,72,0.00,40.00,2,0,5,0.00
2014-11-7,20,9,-3,10,4,-8,85,79,65,0.00,40.00,1,0,5,0.00
2014-11-8,31,14,4,22,10,0,89,83,66,0.00,40.00,2,0,6,0.00
2014-11-9,25,20,6,21,17,2,92,88,82,0.00,40.00,1,0,5,0.00
2014-11-10,35,26,16,30,22,14,95,89,73,0.00,40.00,2,0,6,0.00
2014-11-11,32,27,17,27,24,15,92,87,80,0.00,40.00,1,0,5,0.00
2014-11-12,33,19,10,27,16,7,94,88,78,0.00,40.00,1,0,4,0.00
2014-11-13,34,14,5,25,10,0,92,84,67,0.00,40.00,0,0,3,0.00
2014-11-14,20,4,-3,15,-1,-9,84,81,77,0.00,40.00,1,0,3,0.00
2014-11-15,12,-2,-8,7,-8,-14,80,77,75,0.00,40.00,1,0,3,0.00
2014-11-16,15,4,-6,11,-1,-12,86,81,76,0.00,40.00,3,0,5,0.00
2014-11-17,25,12,4,21,9,-1,89,86,83,0.00,40.00,2,0,4,0.00
2014-11-18,27,13,2,24,10,-2,95,88,82,0.00,40.00,2,0,6,0.00
2014-11-19,33,22,9,31,20,2,97,91,82,0.00,40.00,3,1,11,0.00
2014-11-20,13,4,-1,9,0,-6,85,82,80,0.00,40.00,1,0,4,0.00
2014-11-21,15,9,2,12,5,-2,89,85,81,0.00,40.00,1,0,3,0.00
2014-11-22,15,8,-3,12,4,-8,90,85,79,0.00,40.00,2,0,6,0.00
2014-11-23,21,12,6,19,10,2,92,88,83,0.00,40.00,1,0,5,0.00
2014-11-24,7,-3,-10,2,-8,-16,84,78,74,0.00,40.00,1,0,2,0.00
2014-11-25,6,-1,-8,0,-6,-13,83,79,76,0.00,40.00,0,0,3,0.00
2014-11-26,9,5,-8,4,0,-13,85,82,77,0.00,40.00,1,0,4,0.00
2014-11-27,11,5,-8,6,0,-14,85,81,75,0.00,40.00,1,0,4,0.00
2014-11-28,-3,-9,-20,-9,-16,-28,75,72,66,0.00,40.00,0,0,0,0.00
2014-11-29,3,-3,-11,-1,-8,-17,82,78,74,0.00,40.00,0,0,0,0.00
2014-11-30,5,-4,-19,1,-10,-27,83,77,68,0.00,40.00,0,0,0,0.00
2014-12-1,12,-1,-22,9,-6,-30,88,79,66,0.00,40.00,0,0,0,0.00
2014-12-2,26,19,12,25,17,9,96,91,88,0.00,40.00,0,0,0,0.00
2014-12-3,22,14,5,20,11,1,92,88,83,0.00,40.00,0,0,0,0.00
2014-12-4,7,0,-5,2,-5,-10,82,80,77,0.00,40.00,0,0,0,0.00
2014-12-5,11,6,1,8,2,-3,87,84,81,0.00,40.00,0,0,0,0.00
2014-12-6,17,14,11,15,11,8,91,88,87,0.00,40.00,0,0,0,0.00
2014-12-7,18,16,14,16,14,11,92,90,88,0.00,40.00,0,0,0,0.00
2014-12-8,17,13,6,15,10,2,91,88,85,0.00,40.00,0,0,0,0.00
2014-12-9,19,14,6,17,11,2,92,88,83,0.00,40.00,0,0,0,0.00
2014-12-10,25,19,18,22,18,16,94,89,87,0.00,40.00,0,0,0,0.00
2014-12-11,20,15,11,19,13,7,94,88,82,0.00,40.00,0,0,0,0.00
2014-12-12,7,4,-7,3,-1,-13,85,82,76,0.00,40.00,0,0,0,0.00
2014-12-13,8,-1,-6,5,-5,-12,86,80,76,0.00,40.00,0,0,0,0.00
2014-12-14,32,16,8,32,14,5,100,89,86,0.00,40.00,0,0,0,0.00
2014-12-15,23,10,23,22,5,22,95,21,95,0.00,40.00,0,0,0,0.00
2014-12-16,23,19,15,12,6,12,89,44,89,0.00,40.00,0,0,0,0.00
2014-12-18,3,3,3,-1,-1,-1,83,83,83,0.00,40.00,0,0,0,0.00
2014-12-19,9,3,-2,6,-1,-7,86,83,79,0.00,40.00,0,0,0,0.00
2014-12-20,-200,0,200,-100,0,200,0,0,100,0.00,40.00,0,0,0,0.00
2014-12-21,-200,0,200,-100,0,200,0,0,100,0.00,40.00,0,0,0,0.00
2014-12-22,-200,0,200,-100,0,200,0,0,100,0.00,40.00,0,0,0,0.00
2015-1-2,16,9,9,11,4,1,80,52,62,0.00,40.00,4,3,11,0.00